Content
SEND FEEDBACK

Daily
Averages
Monthly
Summary
United States of America

WALLACE, IDAHO


Home > North America > United States > Idaho
Elevation: 3533 feet     Latitude: 47 15N     Longitude: 115 55W

WEATHER
 
SELECT A DAY
Number of Records: 294,713;   Date Range: 7/1/96 - 11/26/14
 
SHARE

PRINT THIS DATA

[ ← Previous Day ]
WEATHER ALMANAC - FEBRUARY 13, 2013
[ Next Day → ]
[ °C ]   °F
Weather ElementAverageHighLow
Temperature28.3 °F32 °F (12:53 pm)21.9 °F (10:53 pm)
Dewpoint24.8 °F27 °F (12:53 am)19 °F (10:53 pm)
Humidity86.7 %93 % (6:00 am)79 % (12:53 pm)
Barometer30.09 in30.31 in (11:53 pm)29.98 in (4:25 am)
Wind Speed8.4 mph17.3 mph (4:57 am)
Wind Gust36.8 mph (5:24 am)
Weather ElementAverage
Visibility4.4 mi
Wind DirectionSSW (204.6 °)

Weather ElementTotal
Precipitation---
Heating Degree Days38.1 (Base 65)
Averaged from 63 records on February 13, 2013
WEATHER CONDITIONS BREAKOUT
WIND DIRECTION BREAKOUT
WEATHER BY HOUR - FEBRUARY 13, 2013
[ °C ]   °F
Local TimeTemperatureDewpointHumidityBarometerVisibilityWind DirectionWind SpeedGust SpeedPrecipitationEventsConditions
12:28 AM30.2 °F26.6 °F86 %30.02 in0.5 miWest (280°)12.7 mph34.5 mph0.00 inFog-SnowLight Snow
12:35 AM30.2 °F26.6 °F86 %30.02 in0.2 miWest (280°)10.4 mph26.5 mph0.00 inFog-SnowLight Snow
12:53 AM30.0 °F27.0 °F88 %30.12 in0.5 miWNW (290°)13.8 mph27.6 mph0.00 inFog-SnowLight Snow
1:07 AM30.2 °F26.6 °F86 %30.02 in1.0 miWNW (300°)13.8 mph33.4 mph0.00 inSnowLight Snow
1:32 AM30.2 °F26.6 °F86 %30.01 in0.8 miWNW (290°)9.2 mph34.5 mph0.00 inSnowLight Snow
1:53 AM30.0 °F27.0 °F88 %30.11 in1.2 miWest (280°)9.2 mph29.9 mph0.00 inSnowLight Snow
2:09 AM30.2 °F26.6 °F86 %30.00 in2.0 miWest (280°)11.5 mph25.3 mph0.00 inSnowLight Snow
2:53 AM30.0 °F27.0 °F88 %30.09 in1.0 miWNW (300°)10.4 mph26.5 mph0.00 inSnowLight Snow
3:00 AM30.2 °F26.6 °F86 %29.99 in0.8 miWNW (290°)13.8 mph26.5 mph0.00 inSnowLight Snow
3:53 AM30.0 °F27.0 °F88 %30.09 in0.5 miNW (310°)11.5 mph25.3 mph0.00 inFog-SnowLight Snow
4:25 AM30.2 °F26.6 °F86 %29.98 in1.0 miWNW (300°)10.4 mph25.3 mph0.00 inSnowLight Snow
4:53 AM30.0 °F27.0 °F88 %30.06 in1.2 miNW (310°)10.4 mph29.9 mph0.00 inSnowLight Snow
4:57 AM30.2 °F26.6 °F86 %29.98 in2.0 miWNW (290°)17.3 mph33.4 mph0.00 inSnowLight Snow
5:13 AM30.2 °F26.6 °F86 %29.98 in1.2 miNW (310°)12.7 mph34.5 mph0.00 inSnowLight Snow
5:24 AM30.2 °F26.6 °F86 %29.98 in0.8 miNW (310°)13.8 mph36.8 mph0.00 inSnowLight Snow
5:53 AM28.9 °F26.1 °F89 %30.08 in0.5 miNW (310°)13.8 mph26.5 mph0.00 inFog-SnowLight Snow
6:00 AM28.4 °F26.6 °F93 %29.98 in0.2 miNW (310°)16.1 mph33.4 mph0.00 inFog-SnowLight Snow
6:05 AM28.4 °F26.6 °F93 %29.98 in0.5 miNW (310°)12.7 mph33.4 mph0.00 inFog-SnowLight Snow
6:53 AM28.9 °F26.1 °F89 %30.09 in0.2 miNW (310°)13.8 mph25.3 mph0.00 inFog-SnowLight Snow
7:53 AM28.9 °F26.1 °F89 %30.12 in0.2 miNW (310°)10.4 mph26.5 mph0.00 inFog-SnowLight Snow
8:53 AM28.9 °F25.0 °F85 %30.13 in0.2 miNW (310°)12.7 mph25.3 mph0.00 inFogLight Freezing Fog
9:53 AM28.9 °F25.0 °F85 %30.14 in0.2 miWNW (300°)10.4 mph28.8 mph0.00 inFogLight Freezing Fog
10:53 AM30.0 °F26.1 °F85 %30.02 in0.5 miWNW (300°)9.2 mph25.3 mphFogLight Freezing Fog
11:01 AM28.4 °F26.6 °F93 %30.08 in0.2 miWNW (300°)10.4 mph23.0 mphFogLight Freezing Fog
11:08 AM28.4 °F24.8 °F86 %30.08 in1.0 miWNW (300°)11.5 mph21.9 mphMist
11:11 AM28.4 °F24.8 °F86 %30.07 in2.0 miWNW (290°)8.1 mph21.9 mphOvercast
11:18 AM30.2 °F24.8 °F80 %30.08 in5.0 miVariable6.9 mph18.4 mphHaze
11:27 AM30.2 °F26.6 °F86 %30.08 in1.0 miWNW (300°)10.4 mph20.7 mphOvercast
11:37 AM30.2 °F26.6 °F86 %30.07 in3.0 miWNW (300°)10.4 mph25.3 mphOvercast
11:48 AM30.2 °F26.6 °F86 %30.07 in5.0 miVariable6.9 mphHaze
11:53 AM30.0 °F26.1 °F85 %30.01 in6.0 miVariable6.9 mphOvercast
12:53 PM32.0 °F26.1 °F79 %30.00 in10.0 miWNW (290°)8.1 mphOvercast
1:02 PM30.2 °F26.6 °F86 %30.07 in2.5 miVariable5.8 mphOvercast
1:06 PM30.2 °F26.6 °F86 %30.07 in1.2 miVariable6.9 mphOvercast
1:10 PM30.2 °F26.6 °F86 %30.07 in0.8 miVariable6.9 mphOvercast
1:22 PM30.2 °F26.6 °F86 %30.07 in1.5 miVariable6.9 mphOvercast
1:26 PM30.2 °F26.6 °F86 %30.07 in3.0 miVariable4.6 mphOvercast
1:41 PM30.2 °F26.6 °F86 %30.07 in4.0 miVariable4.6 mph0.00 inSnowLight Snow
1:43 PM28.4 °F26.6 °F93 %30.07 in2.5 miVariable4.6 mph0.00 inSnowLight Snow
1:50 PM28.4 °F26.6 °F93 %30.07 in1.2 miNW (310°)8.1 mph0.00 inSnowLight Snow
1:53 PM28.9 °F25.0 °F85 %30.01 in1.2 miNW (320°)8.1 mph0.00 inSnowLight Snow
2:00 PM28.4 °F26.6 °F93 %30.07 in2.0 miVariable5.8 mph0.00 inSnowLight Snow
2:08 PM30.2 °F26.6 °F86 %30.07 in9.0 miVariable4.6 mph0.00 inOvercast
2:23 PM28.4 °F24.8 °F86 %30.07 in10.0 miVariable3.5 mph0.00 inOvercast
2:53 PM28.9 °F24.1 °F82 %30.02 in10.0 miVariable5.8 mph0.00 inOvercast
3:01 PM28.4 °F24.8 °F86 %30.08 in10.0 miWest (280°)8.1 mphOvercast
3:37 PM26.6 °F21.2 °F80 %30.09 in10.0 miWNW (300°)9.2 mph26.5 mphMostly Cloudy
3:53 PM27.0 °F21.9 °F81 %30.17 in10.0 miWest (280°)9.2 mph19.6 mphMostly Cloudy
4:53 PM26.1 °F21.9 °F84 %30.19 in10.0 miNW (310°)8.1 mph19.6 mphOvercast
5:53 PM25.0 °F21.0 °F85 %30.22 in10.0 miVariable4.6 mphOvercast
6:36 PM24.8 °F21.2 °F86 %30.12 in10.0 miVariable3.5 mphOvercast
6:53 PM25.0 °F21.9 °F88 %30.23 in10.0 miNW (310°)6.9 mphOvercast
7:41 PM24.8 °F21.2 °F86 %30.13 in10.0 miNW (310°)3.5 mphOvercast
7:49 PM24.8 °F21.2 °F86 %30.13 in10.0 miWNW (300°)5.8 mphOvercast
7:53 PM24.1 °F21.0 °F88 %30.24 in10.0 miWNW (300°)5.8 mphOvercast
8:21 PM24.8 °F21.2 °F86 %30.14 in10.0 miVariable5.8 mphOvercast
8:53 PM25.0 °F21.9 °F88 %30.27 in10.0 miCalmOvercast
9:53 PM24.1 °F21.0 °F88 %30.27 in10.0 miWNW (300°)3.5 mphOvercast
10:09 PM24.8 °F21.2 °F86 %30.17 in10.0 miVariable3.5 mphOvercast
10:16 PM24.8 °F21.2 °F86 %30.17 in10.0 miWNW (290°)3.5 mphOvercast
10:25 PM23.0 °F21.2 °F93 %30.17 in10.0 miVariable3.5 mphMostly Cloudy
10:53 PM21.9 °F19.0 °F89 %30.29 in10.0 miWNW (290°)3.5 mphPartly Cloudy
11:53 PM21.9 °F19.0 °F89 %30.31 in10.0 miNNW (330°)3.5 mph0.00 inScattered Clouds
Hourly data recorded from KMLP, located miles away from Wallace, Idaho







STORIES FROM OUR PARTNERS